Time,TemperatureF,DewpointF,PressureIn,WindDirection,WindDirectionDegrees,WindSpeedMPH,WindSpeedGustMPH,Humidity,HourlyPrecipIn,Conditions,Clouds,dailyrainin,SoftwareType,DateUTC
2013-02-18 00:02:00,54.0,-99.9,30.31,SSE,148,14.0,16.0,-999,-99.99,,,-99.99,,2013-02-18 06:02:00,
2013-02-18 00:11:00,54.0,-99.9,30.31,SSE,152,13.0,15.0,-999,-99.99,,,-99.99,,2013-02-18 06:11:00,
2013-02-18 00:22:00,54.0,-99.9,30.31,SSE,150,14.0,15.0,-999,-99.99,,,-99.99,,2013-02-18 06:22:00,
2013-02-18 00:32:00,54.0,-99.9,30.31,SSE,155,11.0,15.0,-999,-99.99,,,-99.99,,2013-02-18 06:32:00,
2013-02-18 00:42:00,54.0,-99.9,30.30,SSE,154,13.0,15.0,-999,-99.99,,,-99.99,,2013-02-18 06:42:00,
2013-02-18 00:52:00,54.0,-99.9,30.30,SSE,161,12.0,14.0,-999,-99.99,,,-99.99,,2013-02-18 06:52:00,
2013-02-18 01:02:00,54.0,-99.9,30.30,SSE,159,12.0,15.0,-999,-99.99,,,-99.99,,2013-02-18 07:02:00,
2013-02-18 01:11:00,54.0,-99.9,30.30,SSE,152,12.0,14.0,-999,-99.99,,,-99.99,,2013-02-18 07:11:00,
2013-02-18 01:22:00,55.0,-99.9,30.29,SSE,149,13.0,15.0,-999,-99.99,,,-99.99,,2013-02-18 07:22:00,
2013-02-18 01:32:00,55.0,-99.9,30.29,SSE,152,12.0,14.0,-999,-99.99,,,-99.99,,2013-02-18 07:32:00,
2013-02-18 01:42:00,55.0,-99.9,30.29,SSE,148,13.0,15.0,-999,-99.99,,,-99.99,,2013-02-18 07:42:00,
2013-02-18 01:52:00,55.0,-99.9,30.29,SSE,150,13.0,15.0,-999,-99.99,,,-99.99,,2013-02-18 07:52:00,
2013-02-18 02:02:00,55.0,-99.9,30.29,SSE,147,13.0,14.0,-999,-99.99,,,-99.99,,2013-02-18 08:02:00,
2013-02-18 02:11:00,55.0,-99.9,30.29,SSE,156,13.0,15.0,-999,-99.99,,,-99.99,,2013-02-18 08:11:00,
2013-02-18 02:22:00,55.0,-99.9,30.28,SSE,156,11.0,15.0,-999,-99.99,,,-99.99,,2013-02-18 08:22:00,
2013-02-18 02:33:00,55.0,-99.9,30.28,SSE,154,14.0,15.0,-999,-99.99,,,-99.99,,2013-02-18 08:33:00,
2013-02-18 02:42:00,55.0,-99.9,30.28,SSE,154,12.0,17.0,-999,-99.99,,,-99.99,,2013-02-18 08:42:00,
2013-02-18 02:52:00,55.0,-99.9,30.28,SSE,160,14.0,16.0,-999,-99.99,,,-99.99,,2013-02-18 08:52:00,
2013-02-18 03:03:00,55.0,-99.9,30.28,SSE,158,15.0,17.0,-999,-99.99,,,-99.99,,2013-02-18 09:03:00,
2013-02-18 03:11:00,55.0,-99.9,30.27,SSE,160,14.0,16.0,-999,-99.99,,,-99.99,,2013-02-18 09:11:00,
2013-02-18 03:22:00,56.0,-99.9,30.27,SSE,154,14.0,16.0,-999,-99.99,,,-99.99,,2013-02-18 09:22:00,
2013-02-18 03:32:00,56.0,-99.9,30.27,SSE,153,15.0,16.0,-999,-99.99,,,-99.99,,2013-02-18 09:32:00,
2013-02-18 03:42:00,56.0,-99.9,30.26,SSE,153,14.0,16.0,-999,-99.99,,,-99.99,,2013-02-18 09:42:00,
2013-02-18 03:52:00,56.0,-99.9,30.26,SSE,151,14.0,16.0,-999,-99.99,,,-99.99,,2013-02-18 09:52:00,
2013-02-18 04:01:00,56.0,-99.9,30.26,SSE,150,15.0,18.0,-999,-99.99,,,-99.99,,2013-02-18 10:01:00,
2013-02-18 04:12:00,56.0,-99.9,30.26,SSE,150,15.0,17.0,-999,-99.99,,,-99.99,,2013-02-18 10:12:00,
2013-02-18 04:22:00,56.0,-99.9,30.26,SSE,149,15.0,17.0,-999,-99.99,,,-99.99,,2013-02-18 10:22:00,
2013-02-18 04:32:00,56.0,-99.9,30.26,SSE,147,16.0,19.0,-999,-99.99,,,-99.99,,2013-02-18 10:32:00,
2013-02-18 04:43:00,56.0,-99.9,30.26,SSE,152,15.0,17.0,-999,-99.99,,,-99.99,,2013-02-18 10:43:00,
2013-02-18 04:53:00,56.0,-99.9,30.27,SSE,149,16.0,17.0,-999,-99.99,,,-99.99,,2013-02-18 10:53:00,
2013-02-18 05:02:00,56.0,-99.9,30.27,SSE,152,15.0,16.0,-999,-99.99,,,-99.99,,2013-02-18 11:02:00,
2013-02-18 05:12:00,56.0,-99.9,30.27,SSE,151,15.0,18.0,-999,-99.99,,,-99.99,,2013-02-18 11:12:00,
2013-02-18 05:22:00,56.0,-99.9,30.28,SSE,154,16.0,18.0,-999,-99.99,,,-99.99,,2013-02-18 11:22:00,
2013-02-18 05:33:00,56.0,-99.9,30.27,SSE,152,16.0,19.0,-999,-99.99,,,-99.99,,2013-02-18 11:33:00,
2013-02-18 05:43:00,56.0,-99.9,30.27,SSE,152,14.0,16.0,-999,-99.99,,,-99.99,,2013-02-18 11:43:00,
2013-02-18 05:53:00,56.0,-99.9,30.27,SSE,152,15.0,17.0,-999,-99.99,,,-99.99,,2013-02-18 11:53:00,
2013-02-18 06:02:00,56.0,-99.9,30.27,SSE,150,15.0,17.0,-999,-99.99,,,-99.99,,2013-02-18 12:02:00,
2013-02-18 06:12:00,56.0,-99.9,30.27,SSE,156,16.0,19.0,-999,-99.99,,,-99.99,,2013-02-18 12:12:00,
2013-02-18 06:22:00,56.0,-99.9,30.28,SSE,150,15.0,17.0,-999,-99.99,,,-99.99,,2013-02-18 12:22:00,
2013-02-18 06:32:00,56.0,-99.9,30.28,SSE,151,15.0,18.0,-999,-99.99,,,-99.99,,2013-02-18 12:32:00,
2013-02-18 06:42:00,56.0,-99.9,30.28,SSE,149,15.0,18.0,-999,-99.99,,,-99.99,,2013-02-18 12:42:00,
2013-02-18 06:54:00,56.0,-99.9,30.27,SSE,150,17.0,19.0,-999,-99.99,,,-99.99,,2013-02-18 12:54:00,
2013-02-18 07:03:00,57.0,-99.9,30.28,SSE,150,16.0,19.0,-999,-99.99,,,-99.99,,2013-02-18 13:03:00,
2013-02-18 07:12:00,57.0,-99.9,30.28,SSE,147,17.0,19.0,-999,-99.99,,,-99.99,,2013-02-18 13:12:00,
2013-02-18 07:23:00,57.0,-99.9,30.28,SSE,148,15.0,21.0,-999,-99.99,,,-99.99,,2013-02-18 13:23:00,
2013-02-18 07:33:00,57.0,-99.9,30.28,SE,145,16.0,20.0,-999,-99.99,,,-99.99,,2013-02-18 13:33:00,
2013-02-18 07:43:00,57.0,-99.9,30.28,SSE,147,17.0,20.0,-999,-99.99,,,-99.99,,2013-02-18 13:43:00,
2013-02-18 07:53:00,58.0,-99.9,30.28,SE,144,17.0,18.0,-999,-99.99,,,-99.99,,2013-02-18 13:53:00,
2013-02-18 08:02:00,58.0,-99.9,30.29,SE,145,18.0,20.0,-999,-99.99,,,-99.99,,2013-02-18 14:02:00,
2013-02-18 08:12:00,58.0,-99.9,30.29,SE,145,17.0,20.0,-999,-99.99,,,-99.99,,2013-02-18 14:12:00,
2013-02-18 08:22:00,58.0,-99.9,30.29,SE,145,18.0,21.0,-999,-99.99,,,-99.99,,2013-02-18 14:22:00,
2013-02-18 08:34:00,58.0,-99.9,30.29,SSE,147,19.0,21.0,-999,-99.99,,,-99.99,,2013-02-18 14:34:00,
2013-02-18 08:42:00,58.0,-99.9,30.29,SE,143,18.0,20.0,-999,-99.99,,,-99.99,,2013-02-18 14:42:00,
2013-02-18 08:54:00,58.0,-99.9,30.29,SE,145,18.0,20.0,-999,-99.99,,,-99.99,,2013-02-18 14:54:00,
2013-02-18 09:02:00,58.0,-99.9,30.29,SE,142,18.0,21.0,-999,-99.99,,,-99.99,,2013-02-18 15:02:00,
2013-02-18 09:12:00,58.0,-99.9,30.29,SE,144,17.0,20.0,-999,-99.99,,,-99.99,,2013-02-18 15:12:00,
2013-02-18 09:22:00,58.0,-99.9,30.30,SE,141,19.0,22.0,-999,-99.99,,,-99.99,,2013-02-18 15:22:00,
2013-02-18 09:32:00,58.0,-99.9,30.30,SE,146,19.0,21.0,-999,-99.99,,,-99.99,,2013-02-18 15:32:00,
2013-02-18 09:42:00,58.0,-99.9,30.30,SE,144,17.0,22.0,-999,-99.99,,,-99.99,,2013-02-18 15:42:00,
2013-02-18 09:53:00,58.0,-99.9,30.31,SE,144,18.0,20.0,-999,-99.99,,,-99.99,,2013-02-18 15:53:00,
2013-02-18 10:03:00,58.0,-99.9,30.31,SE,139,19.0,21.0,-999,-99.99,,,-99.99,,2013-02-18 16:03:00,
2013-02-18 10:12:00,58.0,-99.9,30.31,SE,142,17.0,21.0,-999,-99.99,,,-99.99,,2013-02-18 16:12:00,
2013-02-18 10:23:00,58.0,-99.9,30.30,SE,145,18.0,21.0,-999,-99.99,,,-99.99,,2013-02-18 16:23:00,
2013-02-18 10:33:00,58.0,-99.9,30.31,SE,141,20.0,23.0,-999,-99.99,,,-99.99,,2013-02-18 16:33:00,
2013-02-18 10:43:00,58.0,-99.9,30.31,SE,144,18.0,21.0,-999,-99.99,,,-99.99,,2013-02-18 16:43:00,
2013-02-18 10:53:00,58.0,-99.9,30.31,SE,144,20.0,23.0,-999,-99.99,,,-99.99,,2013-02-18 16:53:00,
2013-02-18 11:04:00,58.0,-99.9,30.31,SE,142,18.0,22.0,-999,-99.99,,,-99.99,,2013-02-18 17:04:00,
2013-02-18 11:13:00,58.0,-99.9,30.31,SSE,153,19.0,22.0,-999,-99.99,,,-99.99,,2013-02-18 17:13:00,
2013-02-18 11:22:00,58.0,-99.9,30.32,SSE,147,18.0,19.0,-999,-99.99,,,-99.99,,2013-02-18 17:22:00,
2013-02-18 11:33:00,59.0,-99.9,30.31,SE,144,18.0,21.0,-999,-99.99,,,-99.99,,2013-02-18 17:33:00,
2013-02-18 11:43:00,59.0,-99.9,30.31,SE,140,19.0,21.0,-999,-99.99,,,-99.99,,2013-02-18 17:43:00,
2013-02-18 11:53:00,59.0,-99.9,30.30,SE,146,20.0,22.0,-999,-99.99,,,-99.99,,2013-02-18 17:53:00,
2013-02-18 12:03:00,59.0,-99.9,30.29,SE,136,19.0,22.0,-999,-99.99,,,-99.99,,2013-02-18 18:03:00,
2013-02-18 12:13:00,59.0,-99.9,30.29,SE,142,20.0,23.0,-999,-99.99,,,-99.99,,2013-02-18 18:13:00,
2013-02-18 12:23:00,59.0,-99.9,30.28,SE,130,22.0,24.0,-999,-99.99,,,-99.99,,2013-02-18 18:23:00,
2013-02-18 12:33:00,59.0,-99.9,30.28,SE,134,20.0,26.0,-999,-99.99,,,-99.99,,2013-02-18 18:33:00,
2013-02-18 12:43:00,59.0,-99.9,30.27,SE,132,21.0,26.0,-999,-99.99,,,-99.99,,2013-02-18 18:43:00,
2013-02-18 12:53:00,59.0,-99.9,30.26,SE,130,22.0,27.0,-999,-99.99,,,-99.99,,2013-02-18 18:53:00,
2013-02-18 13:03:00,59.0,-99.9,30.25,SE,128,24.0,29.0,-999,-99.99,,,-99.99,,2013-02-18 19:03:00,
2013-02-18 13:13:00,59.0,-99.9,30.25,SE,133,23.0,27.0,-999,-99.99,,,-99.99,,2013-02-18 19:13:00,
2013-02-18 13:23:00,59.0,-99.9,30.24,SE,135,25.0,30.0,-999,-99.99,,,-99.99,,2013-02-18 19:23:00,
2013-02-18 13:34:00,59.0,-99.9,30.23,SE,132,24.0,28.0,-999,-99.99,,,-99.99,,2013-02-18 19:34:00,
2013-02-18 13:43:00,59.0,-99.9,30.23,SE,131,23.0,27.0,-999,-99.99,,,-99.99,,2013-02-18 19:43:00,
2013-02-18 13:53:00,59.0,-99.9,30.22,SE,130,23.0,29.0,-999,-99.99,,,-99.99,,2013-02-18 19:53:00,
2013-02-18 14:03:00,59.0,-99.9,30.21,SE,131,27.0,30.0,-999,-99.99,,,-99.99,,2013-02-18 20:03:00,
2013-02-18 14:13:00,59.0,-99.9,30.21,SE,129,26.0,30.0,-999,-99.99,,,-99.99,,2013-02-18 20:13:00,
2013-02-18 14:23:00,59.0,-99.9,30.20,SE,127,26.0,28.0,-999,-99.99,,,-99.99,,2013-02-18 20:23:00,
2013-02-18 14:34:00,59.0,-99.9,30.19,ESE,120,26.0,29.0,-999,-99.99,,,-99.99,,2013-02-18 20:34:00,
2013-02-18 14:43:00,59.0,-99.9,30.19,ESE,121,26.0,30.0,-999,-99.99,,,-99.99,,2013-02-18 20:43:00,
2013-02-18 14:53:00,59.0,-99.9,30.18,SE,125,27.0,30.0,-999,-99.99,,,-99.99,,2013-02-18 20:53:00,
2013-02-18 15:03:00,59.0,-99.9,30.17,SE,125,28.0,31.0,-999,-99.99,,,-99.99,,2013-02-18 21:03:00,
2013-02-18 15:12:00,59.0,-99.9,30.17,SE,124,26.0,31.0,-999,-99.99,,,-99.99,,2013-02-18 21:12:00,
2013-02-18 15:22:00,59.0,-99.9,30.17,SE,125,27.0,30.0,-999,-99.99,,,-99.99,,2013-02-18 21:22:00,
2013-02-18 15:33:00,59.0,-99.9,30.17,SE,130,25.0,30.0,-999,-99.99,,,-99.99,,2013-02-18 21:33:00,
2013-02-18 15:43:00,59.0,-99.9,30.17,SE,130,25.0,31.0,-999,-99.99,,,-99.99,,2013-02-18 21:43:00,
2013-02-18 15:53:00,59.0,-99.9,30.17,SE,126,26.0,30.0,-999,-99.99,,,-99.99,,2013-02-18 21:53:00,
2013-02-18 16:03:00,60.0,-99.9,30.16,SE,128,28.0,32.0,-999,-99.99,,,-99.99,,2013-02-18 22:03:00,
2013-02-18 16:13:00,60.0,-99.9,30.16,SE,127,27.0,31.0,-999,-99.99,,,-99.99,,2013-02-18 22:13:00,
2013-02-18 16:23:00,60.0,-99.9,30.16,SE,130,24.0,32.0,-999,-99.99,,,-99.99,,2013-02-18 22:23:00,
2013-02-18 16:33:00,60.0,-99.9,30.16,SE,131,28.0,30.0,-999,-99.99,,,-99.99,,2013-02-18 22:33:00,
2013-02-18 16:44:00,60.0,-99.9,30.16,SE,129,27.0,30.0,-999,-99.99,,,-99.99,,2013-02-18 22:44:00,
2013-02-18 16:54:00,60.0,-99.9,30.15,SE,128,24.0,31.0,-999,-99.99,,,-99.99,,2013-02-18 22:54:00,
2013-02-18 17:03:00,60.0,-99.9,30.15,SE,132,26.0,31.0,-999,-99.99,,,-99.99,,2013-02-18 23:03:00,
2013-02-18 17:12:00,60.0,-99.9,30.15,SE,131,26.0,30.0,-999,-99.99,,,-99.99,,2013-02-18 23:12:00,
2013-02-18 17:23:00,60.0,-99.9,30.15,SE,130,24.0,30.0,-999,-99.99,,,-99.99,,2013-02-18 23:23:00,
2013-02-18 17:34:00,60.0,-99.9,30.16,SE,134,23.0,28.0,-999,-99.99,,,-99.99,,2013-02-18 23:34:00,
2013-02-18 17:43:00,60.0,-99.9,30.15,SE,131,27.0,31.0,-999,-99.99,,,-99.99,,2013-02-18 23:43:00,
2013-02-18 17:54:00,60.0,-99.9,30.15,SE,130,27.0,29.0,-999,-99.99,,,-99.99,,2013-02-18 23:54:00,
2013-02-18 18:03:00,60.0,-99.9,30.15,SE,130,25.0,31.0,-999,-99.99,,,-99.99,,2013-02-19 00:03:00,
2013-02-18 18:13:00,60.0,-99.9,30.14,SE,133,27.0,31.0,-999,-99.99,,,-99.99,,2013-02-19 00:13:00,
2013-02-18 18:23:00,60.0,-99.9,30.14,SE,132,23.0,29.0,-999,-99.99,,,-99.99,,2013-02-19 00:23:00,
2013-02-18 18:36:00,60.0,-99.9,30.14,SE,129,26.0,29.0,-999,-99.99,,,-99.99,,2013-02-19 00:36:00,
2013-02-18 18:44:00,60.0,-99.9,30.14,SE,130,29.0,33.0,-999,-99.99,,,-99.99,,2013-02-19 00:44:00,
2013-02-18 18:55:00,60.0,-99.9,30.14,SE,133,27.0,31.0,-999,-99.99,,,-99.99,,2013-02-19 00:55:00,
2013-02-18 19:03:00,60.0,-99.9,30.14,SE,128,26.0,32.0,-999,-99.99,,,-99.99,,2013-02-19 01:03:00,
2013-02-18 19:15:00,60.0,-99.9,30.14,SE,127,28.0,32.0,-999,-99.99,,,-99.99,,2013-02-19 01:15:00,
2013-02-18 19:25:00,60.0,-99.9,30.13,SE,131,28.0,32.0,-999,-99.99,,,-99.99,,2013-02-19 01:25:00,
2013-02-18 19:35:00,60.0,-99.9,30.13,SE,132,28.0,34.0,-999,-99.99,,,-99.99,,2013-02-19 01:35:00,
2013-02-18 19:45:00,60.0,-99.9,30.13,SE,134,26.0,33.0,-999,-99.99,,,-99.99,,2013-02-19 01:45:00,
2013-02-18 19:57:00,60.0,-99.9,30.13,SE,131,28.0,33.0,-999,-99.99,,,-99.99,,2013-02-19 01:57:00,
2013-02-18 20:04:00,61.0,-99.9,30.13,SE,133,28.0,33.0,-999,-99.99,,,-99.99,,2013-02-19 02:04:00,
2013-02-18 20:14:00,60.0,-99.9,30.14,SE,137,23.0,32.0,-999,-99.99,,,-99.99,,2013-02-19 02:14:00,
2013-02-18 20:23:00,61.0,-99.9,30.14,SE,134,28.0,31.0,-999,-99.99,,,-99.99,,2013-02-19 02:23:00,
2013-02-18 20:35:00,61.0,-99.9,30.13,SE,135,27.0,32.0,-999,-99.99,,,-99.99,,2013-02-19 02:35:00,
2013-02-18 20:44:00,61.0,-99.9,30.13,SE,135,24.0,32.0,-999,-99.99,,,-99.99,,2013-02-19 02:44:00,
2013-02-18 20:56:00,61.0,-99.9,30.13,SE,134,26.0,32.0,-999,-99.99,,,-99.99,,2013-02-19 02:56:00,
2013-02-18 21:08:00,61.0,-99.9,30.13,SE,137,24.0,31.0,-999,-99.99,,,-99.99,,2013-02-19 03:08:00,
2013-02-18 21:15:00,61.0,-99.9,30.12,SE,136,24.0,31.0,-999,-99.99,,,-99.99,,2013-02-19 03:15:00,
2013-02-18 21:25:00,61.0,-99.9,30.12,SE,135,27.0,32.0,-999,-99.99,,,-99.99,,2013-02-19 03:25:00,
2013-02-18 21:35:00,61.0,-99.9,30.12,SE,137,25.0,30.0,-999,-99.99,,,-99.99,,2013-02-19 03:35:00,
2013-02-18 21:46:00,61.0,-99.9,30.11,SE,137,27.0,30.0,-999,-99.99,,,-99.99,,2013-02-19 03:46:00,
2013-02-18 21:55:00,61.0,-99.9,30.11,SE,138,27.0,32.0,-999,-99.99,,,-99.99,,2013-02-19 03:55:00,
2013-02-18 22:03:00,61.0,-99.9,30.10,SE,137,25.0,30.0,-999,-99.99,,,-99.99,,2013-02-19 04:03:00,
2013-02-18 22:15:00,61.0,-99.9,30.10,SE,138,26.0,30.0,-999,-99.99,,,-99.99,,2013-02-19 04:15:00,
2013-02-18 22:24:00,62.0,-99.9,30.10,SE,143,26.0,31.0,-999,-99.99,,,-99.99,,2013-02-19 04:24:00,
2013-02-18 22:34:00,62.0,-99.9,30.10,SE,144,26.0,31.0,-999,-99.99,,,-99.99,,2013-02-19 04:34:00,
2013-02-18 22:45:00,62.0,-99.9,30.09,SE,142,27.0,32.0,-999,-99.99,,,-99.99,,2013-02-19 04:45:00,
2013-02-18 22:56:00,62.0,-99.9,30.09,SE,144,28.0,33.0,-999,-99.99,,,-99.99,,2013-02-19 04:56:00,
2013-02-18 23:02:00,62.0,-99.9,30.09,SE,145,28.0,32.0,-999,-99.99,,,-99.99,,2013-02-19 05:02:00,
2013-02-18 23:13:00,62.0,-99.9,30.08,SE,145,28.0,33.0,-999,-99.99,,,-99.99,,2013-02-19 05:13:00,
2013-02-18 23:23:00,62.0,-99.9,30.07,SSE,147,28.0,32.0,-999,-99.99,,,-99.99,,2013-02-19 05:23:00,
2013-02-18 23:33:00,62.0,-99.9,30.06,SE,146,30.0,35.0,-999,-99.99,,,-99.99,,2013-02-19 05:33:00,
2013-02-18 23:43:00,62.0,-99.9,30.05,SE,144,32.0,38.0,-999,-99.99,,,-99.99,,2013-02-19 05:43:00,
2013-02-18 23:52:00,62.0,-99.9,30.05,SSE,149,29.0,33.0,-999,-99.99,,,-99.99,,2013-02-19 05:52:00,